Location: Abraham Lincoln Continuation High School
(33.9711°N, 117.3662°W)
Time: 06:04:18
(UTC+00:00)

Cosmos 1867 - Pass Details

Date: 21 September 2020
Orbit: 777 x 799 km, 65.0° (Epoch: 26 October)

Event Time Altitude Azimuth Distance (km) Brightness Sun altitude
Rises 03:32:29 0° 328° (NNW) 3,307 7.5 -22.2°
Reaches altitude 10° 03:34:56 10° 326° (NW) 2,373 6.7 -22.7°
Maximum altitude 03:40:21 68° 245° (WSW) 856 3.8 -23.7°
Enters shadow 03:42:28 37° 174° (S) 1,218 4.3 -24.2°
